Theta_e
327 327 327 328 330 330 329 330 331 332 332 333 332 331 331 332 331 331 331 331 329 328 327 329 330 331 331 331 330 328 328 328 329 329 330 331 331 331 331 331 331 330
328 328 328 329 329 329 330 331 331 332 334 334 333 332 332 331 331 331 331 331 330 329 328 329 330 331 331 331 331 330 329 328 330 331 331 332 332 332 331 331 330 330
329 329 329 329 329 328 329 331 332 333 333 332 329 329 331 332 331 331 330 331 331 330 330 329 330 331 331 332 332 332 330 329 330 331 331 332 332 332 332 331 329 329
329 330 330 330 329 328 328 331 332 332 330 327 325 328 332 333 332 332 331 330 330 330 329 329 330 330 331 333 333 333 332 331 331 331 331 331 331 332 331 330 329 329
329 330 331 331 330 328 329 331 331 329 327 326 326 327 331 332 333 333 332 330 329 329 329 329 330 331 332 332 333 333 333 331 331 331 331 331 331 331 331 330 329 329
331 331 331 331 329 329 330 330 328 328 328 328 327 326 328 331 332 333 333 332 330 329 329 329 330 330 331 332 332 332 332 331 331 331 331 331 331 330 330 329 329 328
333 332 332 331 330 331 331 330 329 329 328 329 328 327 328 330 331 332 333 333 332 330 330 329 329 328 328 329 330 330 330 330 330 331 331 330 329 328 328 328 329 328
335 334 333 332 333 334 333 330 329 329 328 329 329 328 329 330 331 331 331 331 331 331 331 330 329 327 326 327 328 328 329 329 329 330 329 329 329 329 329 330 330 329
335 334 333 333 335 336 333 330 329 328 328 329 329 329 330 330 331 330 329 330 329 329 329 329 329 328 326 326 328 328 328 328 329 329 330 330 329 328 328 327 327 328
334 333 332 332 335 336 334 331 331 330 329 329 329 329 330 329 329 329 329 329 328 328 327 326 327 329 327 327 328 329 329 329 329 330 330 328 325 323 323 322 321 323
333 333 331 330 333 335 333 331 331 331 331 330 330 330 330 329 329 328 327 327 327 327 327 326 327 328 328 328 329 330 330 329 328 329 329 328 326 324 322 320 320 321
330 330 329 328 331 332 331 331 331 331 331 330 330 330 330 330 329 326 326 326 326 326 326 326 327 329 329 330 331 331 329 328 327 326 326 327 328 328 327 324 323 323
328 328 328 328 330 331 330 330 331 331 331 331 331 331 331 330 328 328 327 326 324 323 323 324 326 328 331 331 330 330 328 328 327 325 324 325 326 326 326 325 324 322
325 326 327 328 330 330 329 330 331 330 330 330 331 331 331 331 329 329 329 327 324 321 320 321 323 326 329 328 327 328 328 326 325 324 323 324 324 325 325 325 323 321
323 324 324 326 328 329 328 330 330 330 330 329 330 331 331 332 331 330 330 329 326 322 320 320 322 324 326 326 325 327 327 326 326 326 325 324 324 324 325 325 323 322
323 324 324 324 326 326 327 329 330 330 330 328 328 330 330 331 331 331 331 329 325 322 320 320 321 323 326 327 327 328 328 328 328 327 327 326 325 324 324 324 324 324
323 323 324 324 324 325 326 328 329 329 329 328 328 329 329 330 330 330 330 328 323 321 321 320 320 323 327 329 329 329 328 328 328 328 327 327 327 326 326 326 326 327
323 324 324 324 324 325 325 326 328 329 329 329 328 328 328 329 329 328 326 325 322 320 321 321 321 324 327 329 329 328 328 328 328 327 325 326 327 327 328 328 328 328
324 325 325 325 324 325 325 326 327 327 328 328 328 328 328 328 328 327 326 323 322 321 321 320 321 324 328 328 327 327 328 328 328 327 325 326 326 326 327 328 329 329
325 325 326 326 326 325 326 327 327 327 327 327 328 328 328 327 327 328 327 325 323 322 322 321 321 324 328 328 327 328 329 329 329 329 327 326 325 324 325 327 328 328
325 326 326 326 326 326 327 327 327 326 327 327 327 327 328 327 328 329 329 328 326 324 323 322 322 324 327 329 329 330 331 331 330 330 329 327 326 325 325 325 325 326
325 325 326 326 326 327 327 326 327 326 326 327 327 327 327 328 328 329 329 329 328 326 324 323 323 324 327 330 330 331 332 330 329 329 329 328 327 326 324 323 323 325
326 325 325 326 326 327 326 326 326 326 326 327 327 327 327 326 327 327 328 329 328 327 325 324 324 326 328 330 331 331 332 331 329 329 329 329 328 326 324 323 323 324
324 324 324 324 325 326 326 326 326 326 326 326 327 327 326 325 325 325 326 326 326 325 324 324 325 327 329 329 330 330 331 331 331 330 329 329 328 327 325 325 324 324
322 321 321 322 323 324 326 326 326 326 326 326 327 327 325 324 323 324 324 324 324 324 325 325 326 326 326 327 328 329 330 330 331 331 330 329 329 327 327 326 325 325
319 319 319 319 320 322 324 326 326 326 326 326 327 327 325 324 323 323 324 324 324 325 325 324 323 322 322 323 324 325 327 328 329 329 328 327 327 328 328 327 326 325
Wind_Speed
20 19 18 16 14 12 11 11 12 12 11 10 9 9 9 10 10 11 11 10 11 11 10 10 10 11 11 11 11 12 13 12 12 12 12 11 10 10 8 8 8 7
21 20 18 16 14 13 12 11 11 11 11 9 9 9 10 11 12 12 12 12 12 12 12 12 12 12 12 11 12 12 12 12 12 12 12 11 9 9 8 8 8 7
21 20 19 17 15 13 12 12 11 11 10 10 12 13 12 13 13 14 14 13 13 13 13 13 13 13 13 13 12 12 12 12 12 11 11 10 9 9 9 8 8 8
20 20 19 18 16 15 14 13 13 13 13 13 14 14 13 13 14 15 15 14 14 14 14 14 13 13 14 14 13 13 13 13 12 11 11 10 9 9 9 9 9 9
20 19 19 18 17 15 14 15 15 16 16 14 13 13 14 14 14 15 15 14 14 14 14 14 14 13 14 14 15 14 14 14 13 12 12 11 11 11 11 11 10 10
19 19 18 17 15 14 13 15 16 16 14 13 12 13 14 14 14 14 14 15 14 14 14 15 14 13 14 15 15 15 15 15 14 14 13 12 13 13 13 12 11 10
17 17 17 17 15 13 13 15 16 14 12 12 13 14 14 15 15 14 15 15 15 15 14 15 15 14 14 15 16 16 15 15 16 15 15 14 14 14 13 12 11 9
16 15 16 16 15 15 15 16 16 13 13 13 14 14 15 15 15 14 15 16 16 16 16 16 16 17 16 16 17 17 16 16 16 16 16 16 15 14 13 11 10 9
16 15 14 15 15 16 17 17 16 15 15 16 15 15 15 15 14 14 15 16 17 17 17 17 17 18 17 17 16 17 17 17 16 17 17 15 13 12 11 9 10 10
16 15 14 14 15 17 18 17 17 16 16 16 15 15 15 14 14 13 14 16 16 17 18 18 18 17 17 17 16 16 16 15 15 16 15 13 13 13 12 11 11 12
16 15 15 14 15 17 17 16 16 16 16 16 16 16 15 15 14 14 14 15 16 16 17 18 17 17 17 17 16 15 14 14 15 16 13 11 12 14 14 13 14 14
16 16 15 14 15 16 16 15 16 16 16 16 16 15 15 14 14 15 16 16 16 15 16 16 16 17 18 18 16 15 14 14 16 15 12 10 11 12 13 13 14 14
15 15 14 13 14 15 15 14 14 15 15 15 14 14 14 14 14 14 15 15 14 13 14 15 16 18 19 19 18 16 14 14 15 15 14 12 11 11 12 12 12 12
12 13 13 13 14 15 14 14 14 14 15 15 14 15 15 14 13 13 14 13 13 12 13 14 16 18 20 20 19 17 15 14 14 14 14 14 12 12 13 13 13 14
12 12 12 12 14 15 16 15 15 15 15 15 15 15 15 15 14 14 14 13 13 13 14 15 17 18 19 19 19 17 16 15 14 13 14 14 14 14 14 14 14 15
14 13 13 13 14 15 16 16 15 15 15 15 15 15 16 16 16 15 15 14 13 14 15 16 17 17 18 18 18 17 16 15 14 14 15 15 14 14 15 15 15 16
16 16 15 15 15 15 15 16 15 15 15 15 15 15 16 16 17 17 16 15 14 15 16 16 16 17 17 17 17 16 15 14 14 14 15 14 14 14 15 16 17 17
19 18 17 17 16 15 15 15 15 15 15 16 16 16 16 16 17 17 16 15 15 16 17 16 17 18 18 17 17 16 15 15 14 14 14 13 14 15 16 17 18 17
21 21 20 20 19 18 16 15 15 15 16 16 16 16 16 16 17 17 16 15 15 17 17 16 17 18 18 18 18 17 15 15 15 15 13 13 15 16 17 17 17 17
24 25 24 23 22 21 20 18 16 15 15 16 16 17 17 17 17 17 17 16 16 16 17 16 17 18 18 18 18 17 16 16 16 15 15 15 16 17 17 17 17 17
28 29 29 27 25 24 23 21 18 16 15 15 17 17 18 18 17 17 18 17 17 17 17 17 17 18 18 19 18 16 16 17 17 17 18 19 19 18 17 17 17 17
32 32 32 30 28 27 26 24 20 18 16 16 16 17 18 18 19 19 19 19 19 18 18 18 17 18 19 19 18 16 17 18 18 19 19 19 19 18 17 17 17 17
34 34 33 31 30 29 29 26 22 19 17 16 16 17 17 18 19 20 20 20 20 20 20 19 17 17 18 18 18 17 18 19 19 19 19 19 18 18 17 17 17 17
33 32 31 30 30 30 30 28 23 20 18 17 16 16 16 16 17 17 18 19 19 20 19 19 17 16 16 18 19 19 19 19 19 19 19 18 18 18 18 18 17 17
33 31 29 28 29 29 29 27 24 21 18 17 16 15 15 15 15 16 17 17 17 18 17 17 16 15 16 17 18 19 19 19 20 20 20 19 18 18 19 19 18 17
33 31 29 28 28 28 27 26 24 21 18 16 16 16 15 15 15 16 17 16 16 16 16 16 15 14 14 15 16 17 18 19 20 21 21 21 20 19 19 19 19 18
Wind_Direction
248 250 253 254 254 251 241 237 238 240 245 249 249 245 244 245 244 244 243 242 241 237 229 226 222 220 222 225 226 224 223 222 219 216 216 217 218 220 226 234 236 238
248 249 250 251 250 246 240 235 235 238 243 249 252 242 236 240 244 244 244 241 239 234 230 231 231 228 228 231 232 229 226 224 220 217 218 217 217 222 226 229 236 239
246 246 247 248 250 247 242 236 233 233 236 244 249 242 229 228 235 240 243 244 242 236 232 235 236 232 229 230 234 234 230 229 226 223 222 220 220 228 229 226 234 242
245 246 247 249 251 248 241 233 228 231 239 244 245 243 234 225 226 231 237 243 245 243 242 242 240 234 229 229 232 236 233 231 229 227 229 229 228 235 236 231 234 241
244 245 246 248 248 244 237 230 229 235 243 245 242 244 245 237 229 227 232 236 239 242 244 246 246 239 232 230 232 235 235 232 229 229 232 234 234 237 238 237 240 243
240 241 241 240 239 236 232 230 234 238 241 241 239 241 246 246 240 233 233 235 236 238 240 243 246 242 238 236 235 235 235 235 233 232 236 238 238 239 240 241 245 246
237 238 236 234 230 225 225 232 238 239 238 240 239 238 241 244 244 239 238 239 240 240 240 241 243 243 240 239 240 239 237 236 236 238 242 242 238 238 238 239 241 243
236 236 233 229 224 219 224 237 242 240 239 241 241 242 244 245 245 244 243 242 242 242 241 242 242 241 239 239 240 240 238 236 237 242 245 242 238 239 242 244 247 246
234 234 231 227 223 221 226 235 238 236 236 239 241 244 248 251 252 252 252 250 247 245 245 246 245 241 237 237 237 237 238 238 240 244 246 246 249 256 259 259 259 261
233 234 233 230 227 226 228 230 230 229 233 237 239 239 242 249 254 257 258 257 254 253 252 251 248 243 240 239 236 234 235 237 241 246 250 255 260 261 261 257 253 258
233 236 237 236 232 232 232 231 227 227 231 235 237 238 240 244 247 251 256 259 259 259 258 255 249 244 242 241 236 231 230 232 237 242 246 254 259 258 260 261 260 265
232 235 237 237 236 236 237 236 231 228 231 235 237 239 241 242 244 246 252 256 258 259 261 259 252 245 242 238 232 229 231 236 242 245 247 253 259 261 262 263 267 272
230 233 236 239 240 240 240 240 236 233 234 237 239 241 240 239 240 245 250 254 255 258 262 263 257 249 243 237 232 232 235 240 247 254 260 265 266 261 257 259 262 266
224 231 239 244 245 245 244 243 241 239 239 239 239 241 241 240 241 246 250 251 252 257 263 262 256 248 242 238 237 237 238 241 246 253 260 265 265 259 252 252 255 261
218 226 233 240 244 246 247 246 244 244 244 242 238 237 238 241 245 248 252 253 254 257 260 257 249 241 237 239 241 241 241 243 247 251 255 257 260 260 258 258 262 267
222 225 228 230 234 241 246 247 245 244 245 245 243 239 236 237 242 249 254 257 259 263 264 257 243 232 230 233 237 240 242 246 252 254 253 253 257 261 263 265 269 271
229 232 233 232 232 235 242 246 247 247 247 250 251 249 243 239 241 247 251 256 259 263 264 257 241 229 226 228 231 234 238 246 257 257 252 252 259 263 264 266 268 267
235 239 240 240 238 238 240 245 249 250 251 254 256 256 253 247 244 247 248 252 258 261 261 255 241 230 226 226 227 230 235 243 253 255 252 255 263 264 264 264 264 263
240 244 245 244 243 244 245 244 246 250 253 257 259 261 259 253 248 246 244 246 255 261 262 257 245 233 228 228 228 229 235 243 247 247 248 254 259 260 260 258 258 260
242 245 246 245 244 246 249 246 244 248 253 256 259 259 258 254 249 244 241 243 252 259 262 258 247 237 233 233 233 232 236 244 246 243 243 248 252 254 255 254 254 257
246 246 247 248 246 245 247 248 245 246 249 252 253 254 253 252 251 248 244 243 247 255 257 253 245 238 236 235 234 233 237 242 246 245 244 246 249 251 252 252 253 256
250 250 251 252 250 246 245 246 245 244 245 247 249 250 250 250 249 247 244 243 245 250 253 251 243 237 235 234 231 232 238 242 244 244 243 244 247 249 250 249 251 253
253 254 254 255 253 248 245 245 244 243 244 246 245 247 250 251 250 247 245 244 244 247 251 252 245 235 232 232 230 231 239 243 244 243 244 245 246 247 246 247 247 249
255 256 257 256 254 251 247 244 243 241 243 245 245 247 251 253 251 247 244 243 242 244 247 246 241 234 232 233 231 231 236 241 244 246 247 248 246 244 244 245 245 246
258 260 259 258 256 253 248 243 239 238 242 244 243 245 249 250 248 244 241 239 238 238 238 238 237 235 233 233 233 233 235 238 239 242 245 245 242 239 241 244 244 243
260 261 260 257 255 253 247 239 234 234 238 240 240 241 244 245 243 241 239 237 234 232 231 233 235 231 228 230 232 233 235 236 237 240 243 243 240 237 239 242 242 241